| time (UTC) | temp F | wind direction | speed MPH | gust MPH | rain 1hr in | rain 24hr in | rain mn in | humidity % | barometer mb |
| 20260506073020 | 47 | 48 | 1.0 | 3.0 | 0.00 | 0.10 | 0.00 | 59 | 1010.6 |
| 20260506072020 | 47 | 43 | 2.0 | 4.0 | 0.00 | 0.10 | 0.00 | 58 | 1010.5 |
| 20260506071020 | 47 | 45 | 1.0 | 3.0 | 0.00 | 0.10 | 0.00 | 58 | 1010.3 |
| 20260506062022 | 47 | 39 | 1.0 | 2.0 | 0.00 | 0.10 | 0.00 | 61 | 1010.3 |
| 20260506061021 | 48 | 331 | 0.0 | 2.0 | 0.00 | 0.10 | 0.00 | 62 | 1010.3 |
| 20260506051043 | 49 | 335 | 0.0 | 1.0 | 0.00 | 0.10 | 0.00 | 64 | 1010.1 |
| 20260506045023 | 50 | 0.0 | 0.0 | 0.00 | 0.10 | 0.10 | 61 | 1009.9 | |
| 20260506044023 | 51 | 0.0 | 0.0 | 0.00 | 0.10 | 0.10 | 59 | 1010.1 | |
| 20260506043023 | 51 | 331 | 0.0 | 1.0 | 0.00 | 0.10 | 0.10 | 58 | 1010.2 |
| 20260506042023 | 51 | 336 | 0.0 | 1.0 | 0.00 | 0.10 | 0.10 | 57 | 1010.1 |
| 20260506041044 | 52 | 339 | 0.0 | 1.0 | 0.00 | 0.10 | 0.10 | 56 | 1010.3 |
| 20260506040024 | 52 | 320 | 0.0 | 2.0 | 0.00 | 0.10 | 0.10 | 55 | 1010.4 |
| 20260506035024 | 52 | 315 | 2.0 | 3.0 | 0.00 | 0.10 | 0.10 | 54 | 1010.5 |
| 20260506034025 | 52 | 322 | 0.0 | 1.0 | 0.00 | 0.10 | 0.10 | 54 | 1010.2 |
| 20260506033024 | 52 | 304 | 0.0 | 2.0 | 0.00 | 0.10 | 0.10 | 54 | 1010.2 |
| 20260506032024 | 51 | 321 | 0.0 | 1.0 | 0.00 | 0.10 | 0.10 | 54 | 1010.2 |
| 20260506031025 | 51 | 331 | 0.0 | 1.0 | 0.00 | 0.10 | 0.10 | 57 | 1010.2 |
| 20260506030025 | 52 | 0.0 | 0.0 | 0.00 | 0.10 | 0.10 | 55 | 1010.0 | |
| 20260506025025 | 52 | 0.0 | 0.0 | 0.00 | 0.10 | 0.10 | 53 | 1009.8 | |
| 20260506024106 | 52 | 0.0 | 0.0 | 0.00 | 0.10 | 0.10 | 53 | 1009.7 | |
| 20260506023026 | 52 | 0.0 | 0.0 | 0.00 | 0.10 | 0.10 | 52 | 1009.9 | |
| 20260506022025 | 52 | 0.0 | 0.0 | 0.00 | 0.10 | 0.10 | 52 | 1009.7 | |
| 20260506021026 | 52 | 338 | 0.0 | 2.0 | 0.00 | 0.10 | 0.10 | 52 | 1009.6 |
| 20260506020026 | 53 | 0.0 | 0.0 | 0.00 | 0.11 | 0.10 | 50 | 1009.4 | |
| 20260506015026 | 53 | 0.0 | 0.0 | 0.00 | 0.15 | 0.10 | 50 | 1009.3 | |
| 20260506014026 | 53 | 321 | 0.0 | 1.0 | 0.00 | 0.18 | 0.10 | 50 | 1009.2 |
| 20260506013026 | 53 | 310 | 0.0 | 2.0 | 0.00 | 0.20 | 0.10 | 49 | 1009.0 |
| 20260506012047 | 53 | 316 | 1.0 | 4.0 | 0.00 | 0.25 | 0.10 | 48 | 1008.9 |
| 20260506011027 | 53 | 340 | 1.0 | 3.0 | 0.00 | 0.27 | 0.10 | 48 | 1008.9 |
| 20260506010027 | 54 | 317 | 1.0 | 2.0 | 0.00 | 0.30 | 0.10 | 48 | 1008.9 |
| 20260506005027 | 54 | 331 | 1.0 | 3.0 | 0.00 | 0.32 | 0.10 | 47 | 1008.6 |
| 20260506004027 | 54 | 333 | 2.0 | 5.0 | 0.00 | 0.32 | 0.10 | 47 | 1008.6 |
| 20260506003028 | 54 | 313 | 1.0 | 3.0 | 0.00 | 0.33 | 0.10 | 48 | 1008.7 |
| 20260506002028 | 54 | 320 | 1.0 | 3.0 | 0.00 | 0.41 | 0.10 | 47 | 1008.5 |
| 20260506001048 | 55 | 315 | 1.0 | 3.0 | 0.00 | 0.58 | 0.10 | 45 | 1008.6 |
| 20260506000028 | 55 | 328 | 1.0 | 3.0 | 0.00 | 0.59 | 0.10 | 44 | 1008.4 |
| 20260505235049 | 55 | 335 | 2.0 | 3.0 | 0.00 | 0.60 | 0.10 | 44 | 1008.3 |
| 20260505234020 | 55 | 325 | 3.0 | 5.0 | 0.00 | 0.64 | 0.10 | 43 | 1008.4 |
| 20260505233029 | 55 | 327 | 1.0 | 3.0 | 0.00 | 0.65 | 0.10 | 44 | 1008.6 |
| 20260505232028 | 55 | 339 | 2.0 | 3.0 | 0.00 | 0.65 | 0.10 | 42 | 1008.4 |
| 20260505231029 | 55 | 331 | 1.0 | 5.0 | 0.00 | 0.65 | 0.10 | 42 | 1008.5 |
| 20260505230029 | 55 | 326 | 2.0 | 4.0 | 0.00 | 0.65 | 0.10 | 42 | 1008.7 |
| 20260505225018 | 55 | 323 | 2.0 | 4.0 | 0.00 | 0.67 | 0.10 | 41 | 1008.8 |
| 20260505224018 | 55 | 319 | 3.0 | 8.0 | 0.00 | 0.67 | 0.10 | 40 | 1008.9 |
| 20260505223018 | 56 | 323 | 2.0 | 6.0 | 0.00 | 0.67 | 0.10 | 41 | 1008.9 |
| 20260505222015 | 56 | 322 | 2.0 | 5.0 | 0.00 | 0.74 | 0.10 | 42 | 1008.9 |
| 20260505221018 | 55 | 316 | 2.0 | 5.0 | 0.00 | 0.74 | 0.10 | 44 | 1008.8 |
| 20260505220018 | 55 | 314 | 2.0 | 6.0 | 0.00 | 0.74 | 0.10 | 43 | 1008.8 |
| 20260505215016 | 55 | 315 | 2.0 | 6.0 | 0.00 | 0.74 | 0.10 | 43 | 1008.9 |
| 20260505214016 | 55 | 312 | 3.0 | 6.0 | 0.00 | 0.74 | 0.10 | 42 | 1009.0 |
| 20260505213016 | 55 | 313 | 3.0 | 6.0 | 0.00 | 0.74 | 0.10 | 44 | 1009.1 |
| 20260505212016 | 55 | 315 | 2.0 | 5.0 | 0.00 | 0.74 | 0.10 | 47 | 1009.1 |
| 20260505211158 | 55 | 314 | 2.0 | 4.0 | 0.00 | 0.74 | 0.10 | 45 | 1009.1 |
| 20260505210142 | 55 | 311 | 2.0 | 5.0 | 0.00 | 0.74 | 0.10 | 45 | 1009.2 |
| 20260505205017 | 55 | 317 | 3.0 | 6.0 | 0.00 | 0.74 | 0.10 | 44 | 1009.3 |
| 20260505204037 | 55 | 313 | 3.0 | 5.0 | 0.00 | 0.74 | 0.10 | 46 | 1009.3 |
| 20260505203017 | 55 | 315 | 3.0 | 6.0 | 0.00 | 0.74 | 0.10 | 46 | 1009.5 |
| 20260505202017 | 55 | 320 | 3.0 | 5.0 | 0.00 | 0.74 | 0.10 | 47 | 1009.6 |
| 20260505201018 | 55 | 314 | 4.0 | 7.0 | 0.00 | 0.74 | 0.10 | 46 | 1009.6 |
| 20260505200018 | 55 | 321 | 3.0 | 6.0 | 0.00 | 0.74 | 0.10 | 46 | 1009.4 |
| 20260505195038 | 55 | 316 | 3.0 | 7.0 | 0.00 | 0.74 | 0.10 | 45 | 1009.4 |
| 20260505194019 | 55 | 332 | 3.0 | 7.0 | 0.00 | 0.74 | 0.10 | 45 | 1009.3 |
| 20260505193036 | 56 | 321 | 3.0 | 6.0 | 0.00 | 0.74 | 0.10 | 45 | 1009.4 |
| 20260505192016 | 56 | 313 | 4.0 | 8.0 | 0.00 | 0.74 | 0.10 | 45 | 1009.5 |
| 20260505191016 | 56 | 310 | 2.0 | 5.0 | 0.00 | 0.74 | 0.10 | 44 | 1009.5 |
| 20260505190036 | 56 | 314 | 2.0 | 6.0 | 0.00 | 0.74 | 0.10 | 44 | 1009.5 |
| 20260505185037 | 56 | 311 | 2.0 | 5.0 | 0.00 | 0.74 | 0.10 | 45 | 1009.5 |
| 20260505184018 | 56 | 327 | 2.0 | 5.0 | 0.00 | 0.74 | 0.10 | 47 | 1009.6 |
| 20260505183016 | 56 | 312 | 2.0 | 6.0 | 0.00 | 0.74 | 0.10 | 51 | 1009.6 |
| 20260505182037 | 56 | 309 | 2.0 | 5.0 | 0.00 | 0.74 | 0.10 | 54 | 1009.7 |
| 20260505181016 | 55 | 310 | 1.0 | 5.0 | 0.00 | 0.74 | 0.10 | 54 | 1009.7 |
| 20260505180017 | 55 | 305 | 1.0 | 5.0 | 0.00 | 0.74 | 0.10 | 54 | 1009.5 |
| 20260505175017 | 55 | 321 | 2.0 | 4.0 | 0.00 | 0.74 | 0.10 | 54 | 1009.5 |
| 20260505174017 | 55 | 311 | 3.0 | 6.0 | 0.00 | 0.74 | 0.10 | 53 | 1009.5 |
| 20260505173018 | 55 | 314 | 3.0 | 8.0 | 0.00 | 0.74 | 0.10 | 53 | 1009.4 |
| 20260505172017 | 55 | 315 | 3.0 | 6.0 | 0.00 | 0.74 | 0.10 | 53 | 1009.4 |
| 20260505171038 | 56 | 331 | 2.0 | 5.0 | 0.00 | 0.74 | 0.10 | 53 | 1009.4 |
| 20260505170038 | 56 | 335 | 2.0 | 6.0 | 0.00 | 0.74 | 0.10 | 53 | 1009.3 |
| 20260505165018 | 56 | 327 | 3.0 | 8.0 | 0.00 | 0.74 | 0.10 | 51 | 1009.3 |
| 20260505164016 | 56 | 327 | 3.0 | 7.0 | 0.00 | 0.74 | 0.10 | 48 | 1009.3 |
| 20260505163016 | 56 | 337 | 4.0 | 9.0 | 0.00 | 0.74 | 0.10 | 48 | 1009.2 |
| 20260505162018 | 56 | 351 | 2.0 | 7.0 | 0.00 | 0.74 | 0.10 | 49 | 1009.2 |
| 20260505161016 | 56 | 324 | 3.0 | 8.0 | 0.00 | 0.74 | 0.10 | 51 | 1009.1 |
| 20260505153016 | 52 | 331 | 1.0 | 4.0 | 0.00 | 0.74 | 0.10 | 67 | 1009.1 |
| 20260505152017 | 52 | 323 | 2.0 | 5.0 | 0.00 | 0.74 | 0.10 | 68 | 1009.0 |
| 20260505151017 | 51 | 45 | 1.0 | 3.0 | 0.00 | 0.74 | 0.10 | 74 | 1009.1 |
| 20260505124019 | 48 | 339 | 3.0 | 6.0 | 0.05 | 0.69 | 0.05 | 73 | 1008.4 |
| 20260505123040 | 50 | 9 | 3.0 | 7.0 | 0.02 | 0.66 | 0.02 | 69 | 1008.2 |
| 20260505122020 | 51 | 342 | 2.0 | 6.0 | 0.00 | 0.64 | 0.00 | 67 | 1008.5 |
| 20260505121019 | 51 | 334 | 3.0 | 7.0 | 0.00 | 0.64 | 0.00 | 64 | 1008.4 |
| 20260505120040 | 51 | 341 | 3.0 | 6.0 | 0.00 | 0.64 | 0.00 | 63 | 1008.3 |
| 20260505115107 | 51 | 327 | 3.0 | 5.0 | 0.00 | 0.64 | 0.00 | 66 | 1008.3 |
| 20260505114028 | 51 | 329 | 2.0 | 4.0 | 0.00 | 0.64 | 0.00 | 69 | 1007.5 |
| 20260505113029 | 52 | 318 | 1.0 | 3.0 | 0.00 | 0.64 | 0.00 | 71 | 1007.1 |
| 20260505112026 | 52 | 312 | 1.0 | 3.0 | 0.00 | 0.64 | 0.00 | 71 | 1007.0 |
| 20260505111027 | 51 | 351 | 1.0 | 3.0 | 0.00 | 0.64 | 0.00 | 71 | 1006.8 |
| 20260505110107 | 51 | 326 | 1.0 | 3.0 | 0.00 | 0.64 | 0.00 | 71 | 1006.5 |
| 20260505102028 | 53 | 316 | 0.0 | 2.0 | 0.00 | 0.64 | 0.00 | 69 | 1006.2 |
| 20260505101027 | 53 | 317 | 2.0 | 3.0 | 0.00 | 0.64 | 0.00 | 66 | 1006.5 |
| 20260505100028 | 53 | 318 | 1.0 | 3.0 | 0.00 | 0.64 | 0.00 | 65 | 1006.0 |
| 20260505095028 | 53 | 327 | 1.0 | 3.0 | 0.00 | 0.64 | 0.00 | 65 | 1006.0 |
| 20260505094049 | 54 | 317 | 2.0 | 3.0 | 0.00 | 0.64 | 0.00 | 64 | 1006.1 |
| 20260505093028 | 54 | 318 | 0.0 | 2.0 | 0.00 | 0.64 | 0.00 | 63 | 1006.1 |
| 20260505092048 | 55 | 313 | 2.0 | 3.0 | 0.00 | 0.64 | 0.00 | 60 | 1006.2 |
| 20260505091029 | 55 | 313 | 2.0 | 3.0 | 0.00 | 0.64 | 0.00 | 60 | 1006.0 |
| 20260505090029 | 55 | 306 | 2.0 | 4.0 | 0.00 | 0.64 | 0.00 | 59 | 1005.8 |
| 20260505085029 | 55 | 310 | 3.0 | 5.0 | 0.00 | 0.64 | 0.00 | 60 | 1005.7 |
| 20260505084029 | 54 | 310 | 3.0 | 4.0 | 0.00 | 0.64 | 0.00 | 62 | 1005.2 |
| 20260505083029 | 54 | 324 | 1.0 | 2.0 | 0.00 | 0.64 | 0.00 | 65 | 1004.8 |
| 20260505082029 | 55 | 0.0 | 0.0 | 0.00 | 0.64 | 0.00 | 63 | 1004.7 | |
| 20260505081030 | 55 | 0.0 | 0.0 | 0.00 | 0.64 | 0.00 | 62 | 1004.6 | |
| 20260505080030 | 55 | 308 | 0.0 | 2.0 | 0.00 | 0.64 | 0.00 | 59 | 1004.1 |
| 20260505075030 | 55 | 0.0 | 0.0 | 0.00 | 0.64 | 0.00 | 59 | 1003.9 | |
| 20260505074015 | 54 | 320 | 0.0 | 1.0 | 0.00 | 0.64 | 0.00 | 61 | 1003.7 |